#timestamp,LO_Frequency,Hit,StdDev 
1576915215.2,286047002.4,N
1576915235.1,286047002.3,N
1576915236.0,286047002.3,N
1576915255.8,286047002.1,N
1576915275.7,286047000.2,N
1576915295.5,286047001.9,N
1576915315.3,286047001.7,N
1576915335.2,286047000.0,N
1576915355.0,286047002.8,N
1576915355.9,286047002.8,N
1576915375.7,286047000.2,N
1576915395.6,286047000.5,N
1576915415.4,286047000.3,N
1576915435.3,286047000.2,N
1576915455.1,286047000.8,N
1576915456.0,286047000.8,N
1576915475.8,286047000.6,N
1576915495.7,286046998.2,N
1576915515.5,286046998.1,N
1576915535.3,286046999.3,N
1576915555.2,286046999.0,N
1576915575.0,286046999.3,N
1576915575.9,286046999.3,N
1576915595.8,286046998.9,N
1576915615.6,286047001.1,N
1576915635.4,286046998.9,N
1576915655.3,286046996.8,N
1576915675.1,286046996.5,N
1576915695.9,286047001.1,N
1576915715.7,286047002.5,N
1576915765.6,286047002.4,E
1576915775.5,286047001.6,N
1576915795.3,286047002.7,P
1576915815.2,286047000.9,N
1576915835.9,286047002.6,Y
1576915855.7,286046999.9,P
1576915875.6,286046998.5,N
1576915895.4,286047001.2,N
1576915915.2,286047001.1,N
1576915935.1,286046999.3,N
1576915936.0,286046999.3,N
1576915955.8,286046999.4,N
1576915975.7,286046997.9,N
1576915995.5,286046997.5,N
1576916015.3,286046997.0,N
1576916035.2,286046996.8,N
1576916055.0,286046995.2,Y
1576916055.9,286046995.2,P
1576916075.8,286046997.1,N
1576916095.6,286046995.1,P
1576916115.4,286046995.5,N
1576916135.3,286046995.0,Y
1576916155.1,286046998.3,P
1576916175.8,286046998.6,N
1576916195.7,286046997.1,P
1576916215.5,286046998.9,N
1576916235.4,286046998.2,N
1576916255.2,286047000.6,N
1576916275.0,286047001.2,N
1576916275.9,286047001.2,N
1576916295.8,286046998.5,N
1576916315.6,286047001.1,N
1576916335.5,286047001.2,N
1576916355.3,286046999.1,N
1576916375.1,286046998.4,N
1576916395.9,286046999.5,N
1576916415.7,286047000.7,N
1576916435.5,286047000.6,N
1576916455.4,286047000.0,N
1576916475.2,286047002.1,N
1576916495.1,286047002.7,N
1576916496.0,286047002.7,N
1576916515.8,286047000.2,N
1576916535.6,286047002.1,N
1576916555.5,286047001.8,N
1576916575.3,286047001.6,N
1576916595.1,286047002.3,N
1576916615.9,286046999.9,N
1576916635.7,286046998.5,N
1576916655.6,286046999.7,N
1576916675.4,286047000.9,N
1576916695.2,286047000.6,N
1576916715.1,286047001.1,N
1576916716.0,286047001.1,N
1576916735.8,286047001.0,N
1576916755.6,286047000.8,N
1576916775.5,286046999.6,N
1576916795.3,286046999.4,N
1576916815.2,286046998.9,N
1576916835.9,286047000.8,N
1576916855.7,286047000.4,N
1576916875.6,286046998.6,N
1576916895.4,286046998.6,N
1576916915.3,286047000.9,N
1576916935.1,286047001.1,N
1576916936.0,286047001.1,N
1576916955.8,286046998.3,N
1576916975.7,286046996.5,N
1576916995.5,286046999.1,N
1576917015.3,286046999.3,N
1576917035.2,286046996.6,N
1576917055.0,286046996.9,N
1576917055.9,286046996.9,N
1576917075.8,286046997.4,N
1576917095.6,286046996.8,N
1576917115.4,286046996.7,N
1576917135.3,286046999.2,N
1576917155.1,286046998.7,N
1576917175.9,286046998.3,N
1576917195.7,286047001.2,N
1576917215.5,286047000.0,N
1576917235.4,286047000.8,N
1576917255.2,286047001.1,N
1576917275.0,286046999.5,N
1576917275.9,286046999.5,N
1576917295.8,286046997.6,N
1576917315.6,286046995.7,N
1576917335.5,286046994.1,Y
1576917355.3,286046997.2,P
1576917375.1,286047000.1,N
1576917395.9,286046999.9,N
1576917415.7,286046999.9,N
1576917435.5,286046998.3,N
1576917455.4,286046998.6,N
1576917475.2,286046997.2,N
1576917495.1,286046995.0,Y
1576917496.0,286046995.0,P
1576917515.8,286046997.4,N
1576917535.6,286046997.0,N
1576917555.5,286046996.9,N
1576917575.3,286046998.7,N
1576917595.2,286046998.9,N
1576917615.9,286046999.1,N
1576917635.7,286046999.2,N
1576917655.6,286046998.7,N
1576917675.4,286046999.6,N
1576917695.2,286047002.8,N
1576917715.1,286047002.2,N
1576917716.0,286047002.2,N
1576917735.8,286047000.3,N
1576917755.7,286046998.6,N
1576917775.5,286046998.6,N
1576917795.3,286047001.1,N
1576917815.2,286046998.5,N
1576917835.0,286046999.4,N
1576917835.9,286046999.4,N
1576917855.8,286046999.1,N
1576917875.6,286046999.6,N
1576917895.4,286046996.5,N
1576917915.3,286046999.4,N
1576917935.1,286046998.7,N
1576917955.8,286046998.2,N
1576917975.7,286046998.5,N
1576917995.5,286047002.3,N
1576918015.4,286047001.7,N
1576918035.2,286046999.7,N
1576918055.0,286047001.6,N
1576918055.9,286047001.6,N
1576918075.8,286047001.0,N
1576918095.6,286047004.4,N
1576918115.4,286047004.1,N
1576918135.3,286047003.5,N
1576918155.1,286047005.1,N
1576918175.9,286047003.4,N
1576918195.7,286047005.7,N
1576918215.5,286047007.4,Y
1576918235.4,286047005.8,P
1576918255.2,286047006.9,N
1576918275.1,286047005.3,N
1576918276.0,286047005.3,N
1576918295.8,286047003.1,N
1576918315.6,286047003.9,N
1576918335.5,286047004.0,N
1576918355.3,286047001.7,N
1576918375.1,286047004.3,N
1576918395.9,286047002.5,N
1576918415.7,286047002.5,N
1576918435.6,286047000.1,N
1576918455.4,286046999.8,N
1576918475.2,286047000.0,N
1576918495.1,286047000.9,N
1576918496.0,286047000.9,N
1576918515.8,286047002.5,N
1576918535.6,286047002.0,N
1576918555.5,286047001.5,N
1576918575.3,286047002.6,N
1576918595.2,286047002.4,N
1576918615.9,286047004.3,N
1576918635.7,286047000.2,N
1576918655.6,286047000.5,N
1576918675.4,286046998.8,N
1576918695.2,286047001.0,N
1576918715.1,286046998.3,N
1576918716.0,286046998.3,N
1576918735.8,286046998.5,N
1576918755.7,286047001.1,N
1576918775.5,286046998.5,N
1576918795.3,286046996.6,N
